Location: Ravensburg
(48.5621°N, 13.4088°E)
Time: 19:49:07
(UTC+02:00)

ISS - Pass Details

Date: 23 March 2017
Orbit: 399 x 409 km, 51.6° (Epoch: 29 March)

Event Time Altitude Azimuth Distance (km) Brightness Sun altitude
Exits shadow 04:29:56 20° 189° (S) 1,022 -2.1 -15.9°
Drops below altitude 10° 04:31:34 10° 164° (SSE) 1,469 -1.0 -15.6°
Sets 04:33:53 0° 149° (SSE) 2,327 0.2 -15.3°
